Total_Precipitation_Accumulation
0.01 0.02 0.03 0.05 0.06 0.05 0.06 0.09 0.13 0.15 0.14 0.17 0.31 0.57 0.83 0.94 1.24 1.20 1.22 1.42 1.55 1.68 1.99 2.40 2.69 3.24 3.84 4.23 4.62 4.78 4.79 4.72 4.57 4.23 3.93 3.69 3.46 3.24 2.98 2.80 2.70 2.60 2.52 2.72
0.02 0.04 0.03 0.03 0.04 0.06 0.07 0.09 0.12 0.17 0.17 0.23 0.42 0.65 0.94 0.95 1.02 1.07 1.01 1.09 1.28 1.63 1.89 2.40 2.69 2.90 3.36 3.87 4.33 4.63 4.78 4.68 4.31 3.97 3.80 3.70 3.68 3.28 2.98 2.94 3.06 2.88 2.89 2.93
0.02 0.04 0.03 0.04 0.04 0.06 0.10 0.10 0.11 0.13 0.16 0.30 0.46 0.90 1.14 1.02 0.97 1.00 1.00 1.08 1.27 1.71 2.16 2.41 2.59 2.74 3.03 3.43 3.73 3.84 4.01 3.96 3.81 3.87 3.90 3.85 3.88 3.47 3.37 3.37 3.37 3.15 3.14 3.16
0.02 0.03 0.03 0.05 0.07 0.09 0.13 0.09 0.07 0.09 0.18 0.39 0.49 1.08 1.45 1.22 1.10 1.19 1.22 1.20 1.47 1.76 1.79 1.95 2.25 2.57 2.74 2.98 3.30 3.53 3.59 3.54 3.47 3.58 3.66 3.56 3.39 3.24 3.40 3.68 3.62 3.32 3.10 2.96
0.03 0.03 0.04 0.06 0.06 0.07 0.10 0.09 0.09 0.13 0.23 0.40 0.51 0.85 1.37 1.32 1.32 1.27 1.26 1.36 1.61 1.61 1.53 1.64 1.85 2.17 2.29 2.58 2.87 3.11 3.37 3.47 3.43 3.50 3.47 3.50 3.35 3.34 3.40 3.39 3.41 3.20 3.00 2.66
0.04 0.05 0.05 0.04 0.05 0.07 0.08 0.10 0.17 0.24 0.39 0.74 0.59 0.65 1.15 1.29 1.14 1.09 1.17 1.21 1.39 1.38 1.37 1.56 1.72 1.98 2.12 2.25 2.37 2.51 2.71 2.99 3.17 3.24 3.21 3.25 3.21 3.18 3.12 3.05 2.93 2.72 2.57 2.33
0.09 0.10 0.08 0.06 0.06 0.09 0.08 0.16 0.54 0.91 1.09 1.11 0.60 0.65 1.13 1.06 0.96 0.88 1.04 1.11 1.15 1.09 1.07 1.30 1.44 1.59 1.77 1.90 1.99 2.08 2.29 2.61 2.78 2.78 2.77 2.90 2.97 2.96 2.88 2.84 2.69 2.47 2.24 1.98
0.17 0.22 0.13 0.08 0.08 0.10 0.11 0.15 0.46 0.80 0.88 0.90 0.74 1.09 1.52 1.07 0.93 0.90 0.94 0.95 0.92 0.86 0.83 0.99 1.23 1.50 1.65 1.61 1.69 1.80 2.04 2.30 2.42 2.36 2.49 2.73 2.81 2.88 2.77 2.78 2.51 2.26 2.06 1.97
0.12 0.11 0.09 0.08 0.12 0.12 0.12 0.12 0.19 0.36 0.45 0.70 0.96 1.22 1.25 0.81 0.75 0.81 0.83 0.86 0.95 0.89 0.82 0.89 0.98 1.17 1.25 1.27 1.36 1.51 1.89 2.21 2.36 2.40 2.53 2.62 2.71 2.70 2.61 2.49 2.29 2.08 2.09 2.03
0.07 0.07 0.09 0.08 0.10 0.12 0.12 0.14 0.20 0.28 0.47 0.73 0.96 1.24 1.35 0.96 0.78 0.59 0.55 0.60 0.61 0.61 0.63 0.70 0.74 0.86 0.98 1.17 1.42 1.59 1.73 2.04 2.18 2.24 2.35 2.39 2.61 2.53 2.36 2.26 2.08 1.91 1.83 1.86
0.07 0.06 0.08 0.10 0.12 0.14 0.14 0.13 0.16 0.21 0.30 0.51 0.96 1.19 0.94 0.77 0.64 0.60 0.57 0.62 0.56 0.53 0.51 0.57 0.73 0.86 1.01 1.17 1.35 1.43 1.48 1.64 1.80 1.91 2.10 2.09 2.11 2.19 2.25 2.11 1.87 1.79 1.78 1.85
0.07 0.06 0.08 0.14 0.19 0.17 0.15 0.13 0.15 0.20 0.20 0.31 0.56 0.79 0.61 0.66 0.66 0.57 0.59 0.66 0.67 0.66 0.60 0.63 0.82 0.99 1.09 1.23 1.25 1.26 1.31 1.45 1.60 1.78 1.98 2.06 2.06 2.11 2.14 2.02 1.85 1.80 1.83 1.90
0.08 0.07 0.12 0.30 0.41 0.28 0.17 0.13 0.13 0.15 0.14 0.23 0.46 0.71 0.50 0.46 0.57 0.72 0.95 1.14 0.94 0.78 0.70 0.78 0.88 0.93 0.96 1.05 1.16 1.17 1.13 1.28 1.46 1.67 2.00 2.17 2.20 2.15 2.10 1.95 1.75 1.68 1.69 1.79
0.12 0.08 0.12 0.33 0.46 0.38 0.27 0.18 0.14 0.12 0.15 0.20 0.28 0.56 0.52 0.51 0.59 0.79 0.96 0.89 0.86 0.80 0.75 0.85 0.87 0.95 0.93 0.90 0.99 0.98 1.02 1.13 1.37 1.59 1.78 1.88 1.80 1.76 1.80 1.74 1.61 1.55 1.57 1.64
0.16 0.10 0.08 0.13 0.24 0.27 0.25 0.23 0.19 0.15 0.13 0.23 0.28 0.40 0.50 0.54 0.67 0.84 1.02 1.00 0.94 0.77 0.67 0.75 0.76 0.80 0.83 0.85 0.94 0.89 0.90 0.95 1.11 1.31 1.41 1.53 1.54 1.53 1.52 1.59 1.63 1.64 1.73 1.72
0.22 0.21 0.16 0.17 0.21 0.26 0.29 0.27 0.20 0.14 0.12 0.17 0.26 0.41 0.54 0.61 0.71 0.79 0.79 0.73 0.64 0.58 0.48 0.47 0.65 0.75 0.71 0.71 0.75 0.71 0.76 0.90 1.05 1.15 1.26 1.47 1.61 1.63 1.63 1.67 1.77 1.81 1.79 1.80
0.27 0.30 0.29 0.27 0.26 0.27 0.35 0.34 0.25 0.16 0.15 0.21 0.33 0.51 0.68 0.58 0.61 0.68 0.68 0.68 0.62 0.60 0.46 0.42 0.52 0.68 0.69 0.69 0.69 0.77 0.90 1.02 1.13 1.28 1.42 1.60 1.71 1.79 1.80 1.77 1.88 1.84 1.85 1.91
0.42 0.45 0.38 0.35 0.46 0.54 0.39 0.32 0.31 0.30 0.27 0.28 0.41 0.43 0.58 0.59 0.64 0.77 0.76 0.76 0.60 0.55 0.48 0.47 0.48 0.51 0.58 0.64 0.70 0.84 1.12 1.37 1.42 1.56 1.75 1.84 1.93 1.87 1.85 1.86 1.90 1.98 2.07 2.10
0.37 0.56 0.54 0.52 0.64 0.55 0.48 0.34 0.37 0.42 0.56 0.57 0.64 0.62 0.57 0.58 0.70 0.79 0.68 0.62 0.63 0.53 0.49 0.53 0.58 0.60 0.68 0.74 0.76 0.96 1.19 1.49 1.66 1.71 1.81 1.95 2.03 2.07 2.08 2.11 2.08 2.16 2.28 2.24
0.39 0.56 0.70 0.65 0.79 0.77 0.64 0.49 0.49 0.60 1.06 0.88 0.81 0.83 0.72 0.68 0.84 0.93 0.86 0.78 0.72 0.65 0.62 0.63 0.66 0.79 0.96 1.02 1.03 1.15 1.28 1.43 1.61 1.69 1.80 1.98 2.21 2.26 2.28 2.43 2.50 2.45 2.40 2.25
0.70 0.77 0.81 0.80 0.86 0.94 0.79 0.70 0.73 1.15 1.44 1.11 0.94 0.91 0.90 1.03 1.06 1.00 0.89 0.89 0.82 0.71 0.73 0.71 0.74 0.90 1.12 1.25 1.28 1.38 1.52 1.61 1.62 1.71 1.85 2.06 2.24 2.33 2.40 2.56 2.63 2.58 2.53 2.49
0.89 0.96 0.96 0.96 1.15 1.33 0.91 0.87 1.29 1.55 1.29 1.28 1.28 1.20 1.09 1.07 1.04 0.99 0.90 0.88 0.82 0.78 0.83 0.85 0.90 1.05 1.26 1.43 1.40 1.46 1.55 1.59 1.64 1.65 1.77 1.91 2.08 2.11 2.19 2.46 2.55 2.61 2.63 2.56
0.95 1.06 1.15 1.27 1.39 1.27 1.05 1.13 1.30 1.43 1.58 1.49 1.38 1.40 1.21 1.17 1.08 0.99 0.90 0.86 0.83 0.79 0.86 0.92 0.98 1.15 1.39 1.56 1.58 1.66 1.56 1.64 1.69 1.71 1.85 2.00 2.07 2.11 2.22 2.33 2.36 2.44 2.50 2.44
1.13 0.99 1.20 1.44 1.48 1.39 1.24 1.09 1.02 1.16 1.28 1.26 1.25 1.26 1.22 1.19 1.13 1.03 0.92 0.84 0.84 0.84 0.80 0.85 0.97 1.04 1.14 1.34 1.51 1.62 1.68 1.74 1.76 1.78 1.84 1.93 2.06 2.06 2.10 2.23 2.31 2.41 2.50 2.57
1.32 1.16 1.39 1.71 1.62 1.48 1.47 1.34 1.22 1.29 1.36 1.29 1.21 1.18 1.19 1.16 1.10 0.96 0.93 0.92 0.89 0.88 0.83 0.85 0.94 0.97 1.02 1.12 1.24 1.34 1.46 1.59 1.65 1.71 1.78 1.80 1.84 1.95 2.04 2.06 2.13 2.12 2.22 2.25
1.41 1.39 1.69 2.04 1.79 1.64 1.59 1.44 1.32 1.38 1.36 1.43 1.51 1.46 1.24 1.13 1.21 1.12 1.00 0.91 0.89 0.90 0.90 0.92 0.93 0.92 0.95 1.02 1.18 1.29 1.40 1.54 1.66 1.73 1.76 1.70 1.65 1.73 1.79 1.84 1.81 1.81 1.77 1.79